Back to catalog

STARLINK-2378

AliveCommunicationsVLEO
NORAD 47916·PAYLOAD·🇺🇸 United States

Launched Mar 14, 2021 from Cape Canaveral Space Force Station

Loading…

Next Passes (next 24 hours)

TLE

FreshSource: CelesTrak SupGP

Epoch: Sep 14, 2026, 20:21 UTC

1 47916C 21021BJ  26257.84840278 -.00000276  00000+0 -85432-5 0  2576
2 47916  53.1570  95.0354 0000590 172.7201 263.1802 15.32895234    15

Track STARLINK-2378 in real time with AllMySat

Download on the App Store